This is the latest recevied weather packets stored in our database for station/object DL5ARK. If no packets are shown the sender has not sent any weather packets the latest 10 day(s).
| Time | Temp. | Humidity | Pressure | Rain* | Wind** | Luminosity | Snow |
|---|---|---|---|---|---|---|---|
| 1777119531 | 18.33° C | 32% | 1003.5 hPa | 0 mm | - | - | - |
| 1777119347 | 19.44° C | 32% | 1003.5 hPa | 0 mm | - | - | - |
| 1777119167 | 18.89° C | 33% | 1003.8 hPa | 0 mm | - | - | - |
| 1777118988 | 18.89° C | 33% | 1003.5 hPa | 0 mm | - | - | - |
| 1777118807 | 18.89° C | 32% | 1003.8 hPa | 0 mm | - | - | - |
| 1777118628 | 18.89° C | 32% | 1003.8 hPa | 0 mm | - | - | - |
| 1777118268 | 19.44° C | 32% | 1003.8 hPa | 0 mm | - | - | - |
| 1777118087 | 19.44° C | 33% | 1003.8 hPa | 0 mm | - | - | - |
| 1777117907 | 19.44° C | 35% | 1003.8 hPa | 0 mm | - | - | - |
| 1777117727 | 18.89° C | 33% | 1003.5 hPa | 0 mm | - | - | - |
| 1777117547 | 18.89° C | 36% | 1003.8 hPa | 0 mm | - | - | - |
| 1777117187 | 18.89° C | 32% | 1003.8 hPa | 0 mm | - | - | - |
| 1777117008 | 18.89° C | 34% | 1003.8 hPa | 0 mm | - | - | - |
| 1777116827 | 18.33° C | 32% | 1003.8 hPa | 0 mm | - | - | - |
| 1777116647 | 18.33° C | 32% | 1003.8 hPa | 0 mm | - | - | - |
| 1777116467 | 18.89° C | 34% | 1003.8 hPa | 0 mm | - | - | - |
| 1777116287 | 18.89° C | 35% | 1004 hPa | 0 mm | - | - | - |
| 1777115927 | 18.33° C | 34% | 1004 hPa | 0 mm | - | - | - |
| 1777115748 | 17.78° C | 33% | 1003.8 hPa | 0 mm | - | - | - |
| 1777115567 | 18.33° C | 33% | 1004 hPa | 0 mm | - | - | - |
| 1777115388 | 18.33° C | 32% | 1004 hPa | 0 mm | - | - | - |
| 1777115210 | 18.33° C | 34% | 1004 hPa | 0 mm | - | - | - |
| 1777115028 | 19.44° C | 36% | 1004 hPa | 0 mm | - | - | - |
| 1777114848 | 19.44° C | 35% | 1003.8 hPa | 0 mm | - | - | - |
| 1777114667 | 19.44° C | 36% | 1004 hPa | 0 mm | - | - | - |
* Rain latest hour (hover to see other rain measurements)
** Current wind speed in m/s (hover to see current wind gust speed)